Regional Weather Roundup
Issued by NWS

Home | Current Version | Previous Version | Text Only | Print | Product List | Glossary On
Versions: 1 2 3 4 5 6 7 8 9 10 11 12 13 14 15 16 17 18 19 20 21 22 23 24 25 26 27 28 29 30 31 32 33 34 35 36 37 38 39 40 41 42 43 44 45 46 47 48 49 50
000
ASUS43 KMKX 272111
RWRWI

WISCONSIN REGIONAL WEATHER ROUNDUP
NATIONAL WEATHER SERVICE MILWAUKEE/SULLIVAN WI
400 PM CDT MON APR 27 2015

NOTE: "FAIR" INDICATES FEW OR NO CLOUDS BELOW 12,000 FEET WITH NO
SIGNIFICANT WEATHER AND/OR OBSTRUCTIONS TO VISIBILITY.

WIZ001-002-006>008-014>016-023>028-272200-
NORTHWEST WISCONSIN

CITY           SKY/WX    TMP DP  RH WIND       PRES   REMARKS
SUPERIOR ARPT  SUNNY     68  31  25 NE5       30.14F
ASHLAND        SUNNY     63  29  27 NE8       30.18F
HAYWARD        SUNNY     66  24  20 N8        30.15F
SIREN          SUNNY     67  23  18 NE3       30.15F
CUMBERLAND     SUNNY     64  25  22 NW6G17    30.14F
RICE LAKE      SUNNY     67  27  22 N7G16     30.16F
CHETEK         SUNNY     66  32  27 NW8       30.14F
LADYSMITH      SUNNY     67  29  24 N7        30.15F
EAU CLAIRE     SUNNY     68  28  22 N14       30.13F
MENOMONIE      SUNNY     68  24  19 NW12      30.14F
NEW RICHMOND   SUNNY     67  21  17 NW9       30.16F
OSCEOLA        SUNNY     67  27  22 NE6       30.18F
$$

WIZ003>005-009-010-017-018-272200-
NORTH CENTRAL WISCONSIN

CITY           SKY/WX    TMP DP  RH WIND       PRES   REMARKS
MANITOWISH WTR SUNNY     58  28  32 N15       30.15S
ARBOR VITAE    SUNNY     62  30  29 N12G24    30.13F
WOODRUFF       SUNNY     62  30  29 N12G24    30.13F
RHINELANDER    SUNNY     62  26  25 N9        30.12F
EAGLE RIVER    SUNNY     60  23  24 N15       30.13S
LAND O LAKES   SUNNY     59  25  26 N17G23    30.14F
PHILLIPS       SUNNY     62  31  31 NE15      30.14S
TOMAHAWK       SUNNY     63  29  27 NW14      30.13S
MEDFORD        SUNNY     64  31  28 N9G17     30.12S
MERRILL        SUNNY     65  31  27 N12G17    30.10F
$$

WIZ029-030-035-036-043>047-272200-
CENTRAL WISCONSIN

CITY           SKY/WX    TMP DP  RH WIND       PRES   REMARKS
WAUSAU         SUNNY     66  29  24 N8G21     30.08F
MOSINEE        SUNNY     64  28  25 N7G18     30.11F
MARSHFIELD     SUNNY     67  29  24 NW9       30.11F
STEVENS POINT  SUNNY     65  29  25 NW12G18   30.10S
WAUPACA        SUNNY     69  26  19 NW3       30.08F
WAUTOMA        SUNNY     67  28  23 N10G18    30.08F
WISC RAPIDS    SUNNY     67  26  21 N7G18     30.11F
CAMP DOUGLAS   SUNNY     68  30  24 N15       30.10F
$$

WIZ011>013-019>022-031-037>040-048>050-272200-
NORTHEAST WISCONSIN

CITY           SKY/WX    TMP DP  RH WIND       PRES   REMARKS
ANTIGO         SUNNY     63  31  29 N12G21    30.10S
SHAWANO        SUNNY     67  35  31 E8        30.08S
OCONTO         SUNNY     54  34  47 E8        30.10F
STURGEON BAY   SUNNY     54  36  50 E9        30.13S
GREEN BAY      SUNNY     61  35  37 NE8       30.10F
MANITOWOC      MOSUNNY   52  36  54 E10       30.12F
APPLETON       MOSUNNY   63  28  27 N9        30.09F
CLINTONVILLE   SUNNY     68  23  18 N10G18    30.07S
OSHKOSH        SUNNY     61  33  35 VRB7      30.09F
$$

WIZ032>034-041-042-053>061-272200-
SOUTHWEST WISCONSIN

CITY           SKY/WX    TMP DP  RH WIND       PRES   REMARKS
LA CROSSE      SUNNY     69  33  26 NW10      30.13F
SPARTA         SUNNY     68  29  23 NW13G20   30.12F
VIROQUA        SUNNY     64  31  29 NW14G25   30.13F
BOSCOBEL       SUNNY     69  33  26 NW12G23   30.12F
PRAIRIE DU CHI SUNNY     65  30  26 NW10      30.12F
PLATTEVILLE    SUNNY     64  33  30 NW10G16   30.11F
$$

WIZ056-057-062-063-064-067-068-272200-
SOUTH CENTRAL WISCONSIN

CITY           SKY/WX    TMP DP  RH WIND       PRES   REMARKS
REEDSBURG      SUNNY     65  33  30 NW7G16    30.09F
BARABOO/DELLS  SUNNY     65  28  24 NW6       30.09F
LONE ROCK      SUNNY     67  31  26 NE7G17    30.10F
MINERAL POINT  SUNNY     66  27  22 N10       30.11F
MADISON        MOSUNNY   67  32  27 VRB7      30.09F
MIDDLETON      SUNNY     67  25  20 N7        30.09F
WATERTOWN      SUNNY     62  35  36 N12       30.09F
MONROE         SUNNY     63  34  34 N9G20     30.09F
JANESVILLE     MOSUNNY   64  28  25 NE13G18   30.09F
$$

WIZ051-052-058>065-066-070>072-272200-
SOUTHEAST WISCONSIN

CITY           SKY/WX    TMP DP  RH WIND       PRES   REMARKS
MILWAUKEE      MOSUNNY   47  33  58 NE13      30.15S
WAUKESHA       MOSUNNY   52  36  54 E10       30.13S
MILWAUKEE/TIMM SUNNY     52  32  46 NE9       30.14S
RACINE         SUNNY     49  33  54 N15G22    30.14F
BURLINGTON     SUNNY     55  34  46 E9        30.11S
KENOSHA        SUNNY     52  35  52 NE14      30.13R
FOND DU LAC    SUNNY     61  32  33 NE12      30.10F
SHEBOYGAN      MOSUNNY   50  35  56 NE13      30.13S
WEST BEND      SUNNY     52  34  50 E10       30.11S
JUNEAU         SUNNY     61  35  37 NE10G17   30.10F
$$

LSZ147-162-272200-
LAKE SUPERIOR

STATION/POSITION TIME  TEMP    WIND        PRES    WAVE
                       AIR SEA DIR/SP/G            HT/PER
                 (UTC) (F)     (DEG/KT/KT) (MB)    (FT/S)
W MID LAKE BUOY  2050   38 35  210/  6/  8 1024.0F   0
DEVILS ISLAND    2100   48     130/  7/  9 1022.7F
PORT WING        2040   47      40/  4/  5 1021.7F
SAXON HARBOR     2040   49        CALM     1022.4F
$$

LMZ867-665-643>646-272200-
LAKE MICHIGAN

STATION/POSITION TIME  TEMP    WIND        PRES    WAVE
                       AIR SEA DIR/SP/G            HT/PER
                 (UTC) (F)     (DEG/KT/KT) (MB)    (FT/S)
CHAMBERS ISLAND  2000   48      50/ 11/ 15 1020.0F
NORTHPORT PIER   2000   44     140/  4/  5 1020.3S
SISTER BAY       1917   56      30/  9/ 15   N/A
KEWAUNEE LAKESHO 2000   45     140/  2/  4 1019.7S
SHEBOYGAN LAKESH 2100   41      40/  4/  5 1021.0F
PORT WASHINGTON  2040   46      40/  8/ 12 1021.0S
MILWAUKEE LAKESH 2000   42      30/ 10/ 12   N/A
KENOSHA   LAKESH 2100   43      10/ 11/ 12 1020.3S
$$

TC  - TEMPERATURE IN CELSIUS
VSB - VISIBILITY IN STATUTE MILES
WCI - WIND CHILL INDEX
HX  - HEAT INDEX




USA.gov is the U.S. government's official web portal to all federal, state and local government web resources and services.